Weather in Yb

Russia / Komi Republic     61°16′23″N   50°34′35″E
temp.,
°C
wind,
m/s
gust,
m/s
humid.,
%
clouds,
%
prec.,
mm/h
press.,
hPa
HPBL,
m
19 april, mon
mon1900:00−3ene27765 0.0 1038163
03:00−4e23755 0.0 103971
06:00−2e23625 0.0 1039229
09:00+2ene12415 0.0 10391121
12:00+5ene11330 0.0 10371394
15:00+6ne01330 0.0 10361344
18:00+3e00470 0.0 103610
21:00−1s00563 0.0 103610
20 april, tue
tue2000:00−1wsw11615 0.0 103610
03:00−2wsw22665 0.0 103624
06:000w245810 0.0 1036160
09:00+6w234015 0.0 1035856
12:00+8w22345 0.0 10341255
15:00+9w22335 0.0 10321340
18:00+7w11485 0.0 103110
21:00+3s11595 0.0 103210
21 april, wed
wed2100:00+1sse11645 0.0 103110
03:000sse11690 0.0 103110
06:00+2sse25625 0.0 1031157
09:00+8se464250 0.0 1029768
12:00+11se573470 0.0 10261284
15:00+12se51038100 0.0 10241496
18:00+9sse51246100 0.0 10231145
21:00+8sse61448100 0.0 10221210
22 april, thu
thu2200:00+6s61562100 0.0 10211174
03:00+4sse61386100 0.1 1020929
06:00+4s51296100 0.0 1020785
09:00+4s51295100 0.0 1021749
12:00+5s51184100 0.0 1022856
15:00+6s51184100 0.0 1022855
18:00+4s51196100 0.1 1022926
21:00+5s51189100 0.2 1023967
23 april, fri
fri2300:00+5s51190100 0.1 1022916
03:00+5s51188100 0.1 1024812
06:00+5s41087100 0.0 1025756
09:00+8ssw4875100 0.0 1026827
12:00+10s466499 0.0 10261056
15:00+12s4559100 0.0 10261340
18:00+9se3973100 0.0 1026509
21:00+8sse41080100 0.1 1025431